AMOS-4

Last updated on May 21, 2019, 3:10 a.m. UTC

1 39237U 13045A   19140.11977880 -.00000003  00000-0  00000+0 0  9996
2 39237   0.0310 108.9700 0002689 328.1041 268.5425  1.00272954 20968
UTC
Height (km)
Latitude
Longitude
Inclination
Orbital Period
UTC large
Height (km)
Speed (km/s)
/
Latitude / Longitude
Inclination (degrees)
Orbital Period (minutes)
Azimuth
Elevation
Range (km)
Doppler Factor
iOS Compass Heading
iOS Angle

Next 30 passes for location: Hong Kong

Rise time Rise Azimuth (degrees) Set time Set Azimuth (degrees) Duration Max altitude (degrees)

No matching passes for this satellites